Location: Monfort
(47.1967°N, 0.2115°W)
Time: 12:11:50
(UTC+00:00)

ERBS - Pass Details

Date: 24 October 2020
Orbit: 407 x 422 km, 57.0° (Epoch: 27 November)

Event Time Altitude Azimuth Distance (km) Brightness Sun altitude
Rises 17:25:51 0° 262° (W) 2,352 8.9 -5.6°
Reaches altitude 10° 17:28:07 10° 274° (W) 1,496 6.6 -6.0°
Maximum altitude 17:31:03 28° 336° (NNW) 825 3.9 -6.5°
Drops below altitude 10° 17:34:01 10° 38° (NE) 1,510 4.6 -7.0°
Enters shadow 17:35:03 - 45° (NE) 1,887 5.1 -7.2°
